Dewpoint
69 70 70 70 70 70 70 70 70 70 70 70 70 70 70 71 70 70 71 70 70 70 71 72 72 72 72 72 72 73 73 74 74 75 75 75 75 75 75 74 74 74 74 73 73 73 73 72 72 72 72 71 70 69 68 68 68 68 68 67 66 66 66 65 63 63 65 66 65 65 66 65 65 67 67 66 67 68 69 69 69 68 68 68 67
69 70 70 70 70 70 70 70 70 70 70 70 70 70 70 70 70 71 70 70 70 70 71 71 72 72 72 72 72 72 73 73 73 74 74 74 74 74 74 74 74 74 74 73 73 73 73 73 72 72 72 71 71 69 69 68 68 67 67 66 66 66 66 65 65 64 63 65 65 67 66 66 66 68 66 66 66 67 67 68 68 68 68 68 68
68 70 70 70 70 70 70 70 70 70 69 69 69 69 70 70 71 70 70 70 71 71 70 71 71 72 72 72 72 72 73 73 73 74 74 74 74 74 74 74 74 74 73 73 73 73 73 73 72 72 72 71 71 70 69 69 68 68 68 68 67 67 67 66 66 64 63 63 66 64 66 67 66 67 68 67 68 68 67 67 66 67 68 68 68
68 69 69 69 69 70 70 70 69 69 69 69 69 69 69 70 70 70 70 70 70 71 71 71 71 72 72 72 72 72 72 72 73 73 74 74 74 74 74 74 74 74 74 73 73 73 73 73 72 72 72 72 72 71 71 70 69 69 68 69 68 68 68 67 66 65 65 64 65 65 66 67 67 68 67 68 66 67 67 67 67 67 67 68 68
67 68 68 69 69 69 69 69 69 69 69 69 69 69 69 69 70 70 70 70 70 71 72 72 72 72 71 71 72 72 72 72 72 73 73 73 74 73 74 74 74 74 74 74 74 73 73 73 73 73 73 72 72 71 71 71 70 69 69 69 69 68 68 68 67 67 65 64 64 66 67 67 68 68 68 67 67 67 67 67 67 67 68 66 67
67 67 68 68 69 69 69 69 69 69 69 69 69 69 69 69 69 70 70 70 70 70 71 72 72 72 72 72 72 72 72 72 72 72 72 73 73 73 73 74 73 74 74 74 74 74 73 73 73 73 72 72 72 72 72 71 71 70 70 70 69 69 69 68 68 67 66 65 65 65 66 64 65 67 68 67 66 66 67 67 67 67 67 66 65
67 67 67 68 68 68 68 69 69 69 69 69 69 69 69 69 69 69 70 70 70 70 70 71 72 72 72 72 72 72 72 72 72 73 73 73 73 73 73 73 73 73 74 73 73 74 74 73 73 73 73 72 72 72 72 72 71 71 71 70 70 69 69 68 68 67 67 66 66 66 65 66 66 64 66 68 67 66 65 64 65 66 67 67 66
67 67 67 68 68 68 68 69 69 69 69 70 70 69 69 69 70 70 70 70 70 70 70 71 71 71 72 72 72 73 72 72 72 73 73 73 73 73 73 73 73 73 73 73 73 73 73 73 73 73 73 73 73 73 73 72 72 71 71 71 70 70 69 69 68 67 67 66 66 66 66 65 66 66 67 67 66 66 66 65 63 64 65 67 66
67 67 67 68 68 69 69 69 69 70 70 70 70 70 70 70 70 71 71 70 70 70 70 71 71 71 71 71 72 72 72 72 72 72 72 73 73 72 73 73 73 73 73 73 73 73 73 73 73 73 73 73 70 70 70 70 72 72 71 71 71 70 69 69 68 68 67 67 66 66 66 66 65 65 65 65 64 63 65 66 65 65 65 65 66
67 67 67 67 68 69 69 70 70 70 70 70 70 70 70 70 70 71 71 71 71 71 71 71 71 71 71 71 71 72 72 72 69 65 67 72 73 72 72 73 73 72 73 72 72 73 73 73 73 72 69 69 68 67 66 66 66 70 72 72 71 70 69 69 68 68 67 67 66 66 66 65 65 66 65 65 65 66 66 66 65 64 66 65 65
67 67 67 67 68 69 69 70 70 70 70 70 70 70 70 70 71 71 71 71 71 71 71 70 70 70 71 71 71 71 71 71 65 63 63 65 71 72 72 72 73 72 72 72 72 72 73 73 73 73 71 69 69 66 66 65 65 65 65 67 68 71 70 69 69 68 68 67 67 67 66 65 66 66 66 65 65 66 65 65 65 65 64 64 63
66 67 67 68 69 69 69 70 70 70 70 70 70 71 71 71 71 71 71 71 71 71 71 71 71 70 70 70 71 71 72 67 64 63 62 62 65 72 72 72 72 72 72 72 72 73 73 72 73 73 73 73 73 72 68 65 63 63 63 63 64 65 66 70 70 69 68 67 67 67 66 66 66 67 66 65 66 66 66 66 66 65 64 64 64
67 68 68 68 69 69 70 70 70 70 70 71 71 71 71 71 71 71 70 71 71 71 71 71 71 71 70 70 69 70 70 65 63 62 62 62 62 66 72 72 72 72 72 72 72 73 73 73 73 73 73 71 72 73 74 73 65 62 62 63 63 63 63 63 64 70 70 69 68 68 67 67 67 67 67 67 67 66 66 65 66 66 65 65 64
68 68 69 69 69 70 70 70 70 70 70 71 71 71 71 71 71 71 71 71 71 71 71 71 71 71 71 70 70 70 70 64 62 61 61 61 61 63 71 72 72 72 72 72 73 73 73 73 73 73 73 74 74 74 73 74 73 73 71 69 68 67 63 61 61 62 66 69 69 69 70 70 68 69 69 69 68 67 66 66 67 66 66 65 66
69 69 69 69 70 70 70 70 70 70 71 71 71 71 71 71 71 71 70 70 71 71 71 70 71 71 70 70 70 70 69 63 61 59 59 59 60 62 70 71 72 72 72 73 73 73 73 73 73 73 73 73 74 73 74 73 73 73 73 73 72 71 70 69 66 65 65 66 68 69 70 70 71 71 70 70 69 68 68 68 68 67 67 66 66
69 69 69 69 70 70 70 70 70 71 71 71 71 71 71 71 71 71 71 70 71 71 71 71 70 70 71 70 70 70 69 62 60 59 58 58 59 66 69 70 71 71 72 72 72 73 73 73 73 73 73 73 70 65 68 73 73 73 73 73 73 73 72 68 66 66 67 68 68 68 68 69 66 70 70 70 70 70 69 68 68 67 66 65 64
69 69 70 69 70 70 70 70 70 71 71 71 71 71 71 71 71 71 71 71 70 70 70 70 71 70 70 71 70 70 70 65 60 58 57 57 59 67 69 70 70 71 71 72 72 72 73 73 73 73 73 73 69 64 63 65 72 73 72 72 72 72 72 73 66 62 63 62 62 63 63 63 62 61 61 61 64 67 69 68 67 66 65 65 64
69 70 70 70 70 70 71 71 71 71 71 71 71 71 71 71 71 71 71 70 70 70 70 70 71 71 70 70 70 70 70 67 60 57 57 56 61 68 69 70 70 70 71 71 72 72 72 70 72 73 73 73 66 63 63 65 71 72 72 72 72 72 72 72 72 71 62 61 61 61 62 62 61 61 61 61 61 62 66 65 66 68 66 65 65
69 70 70 70 71 71 71 71 71 71 71 71 71 71 71 71 71 71 71 71 71 71 71 71 70 71 70 70 68 69 70 67 60 58 56 56 61 68 69 69 70 70 71 71 72 72 72 71 69 68 70 70 64 62 61 64 71 72 72 72 72 72 72 72 72 72 72 70 69 67 67 64 66 66 66 62 61 65 65 65 66 66 66 66 66
69 70 70 71 71 72 71 72 72 71 71 71 71 71 71 71 71 71 71 71 71 71 71 71 70 70 70 70 70 69 69 70 68 58 56 55 56 68 70 70 70 70 70 71 71 72 72 72 70 62 61 61 61 60 59 58 69 72 72 72 72 71 72 72 72 72 72 72 72 72 71 70 69 69 68 68 67 67 66 66 66 66 66 67 67
70 71 71 71 71 72 72 72 72 72 72 72 71 71 71 71 71 72 71 71 71 71 71 71 70 70 70 70 70 70 69 70 69 58 55 55 55 59 69 70 70 70 71 71 71 71 72 72 72 66 61 59 58 57 57 56 59 70 73 73 73 72 70 72 72 72 71 71 71 71 71 71 71 71 70 70 69 69 68 67 67 66 66 66 66
70 71 71 71 71 72 72 72 72 72 72 72 72 72 72 72 72 72 71 71 72 72 72 71 71 71 71 70 71 70 70 67 70 60 56 54 54 54 67 70 70 71 71 71 71 71 71 72 72 68 61 58 57 55 54 55 56 65 70 64 62 61 68 70 71 70 70 70 70 70 70 70 70 70 71 71 70 70 70 69 68 67 67 67 67
73 71 71 71 72 72 73 73 72 73 73 73 72 72 72 72 72 73 72 72 72 72 72 72 71 71 71 71 71 71 71 71 63 68 57 54 53 53 57 64 63 70 71 70 71 72 72 73 73 69 63 57 55 54 53 53 54 61 58 59 60 61 62 68 68 69 69 69 69 69 69 70 70 70 70 70 70 71 71 71 70 69 69 68 67
75 74 72 71 71 71 72 73 73 73 73 73 73 73 73 73 73 73 73 72 72 72 72 72 71 71 70 70 70 71 72 72 66 61 64 55 54 53 53 55 59 68 71 71 72 72 73 73 67 54 49 48 49 51 52 52 60 55 54 56 60 60 67 68 68 68 68 67 67 67 68 69 69 69 70 70 70 71 71 71 71 71 71 70 70
74 73 73 72 71 71 71 72 73 73 73 73 73 73 73 73 73 73 73 72 72 71 72 71 71 71 71 70 71 71 71 72 72 66 60 58 54 53 53 54 54 56 66 71 72 72 53 49 51 53 54 54 52 53 51 51 53 54 53 55 59 66 68 68 68 67 67 67 67 68 68 69 69 70 71 71 71 71 71 70 71 71 71 71 71
74 73 73 72 71 71 71 71 72 73 73 74 74 74 73 73 73 73 72 72 72 72 71 71 71 71 71 71 71 71 72 72 72 72 66 63 59 55 54 54 55 55 58 65 63 55 55 56 56 58 59 60 65 67 67 66 54 54 54 56 62 65 66 67 67 67 67 67 67 67 67 68 69 70 70 70 69 69 69 68 68 68 69 69 69
75 73 72 72 72 72 71 71 72 72 73 73 74 74 74 73 73 72 72 72 72 72 72 71 71 70 71 71 71 72 72 73 73 72 71 69 68 65 60 59 56 56 59 61 60 62 64 64 65 60 60 59 61 59 61 62 64 62 61 61 63 64 65 66 66 67 66 66 66 66 67 67 69 68 68 68 67 67 68 67 67 67 67 68 67
73 72 72 72 72 72 72 73 73 72 73 73 73 73 73 73 73 73 72 72 72 72 71 71 71 71 71 71 72 72 73 73 73 72 70 70 70 69 66 65 64 62 62 63 65 65 66 60 61 66 66 66 66 65 65 65 65 65 65 64 63 64 64 64 64 65 65 66 65 66 65 66 65 65 64 64 64 64 65 64 64 64 64 65 64
72 71 71 72 73 73 72 75 73 69 64 59 56 54 56 61 72 73 65 65 73 72 72 72 72 72 72 72 72 73 73 72 72 66 71 64 68 68 67 67 66 65 64 60 66 65 65 66 65 64 64 63 62 62 62 62 62 62 62 62 63 63 63 63 62 62 63 63 63 63 62 63 63 63 63 63 63 64 64 64 64 64 64 64 63
71 71 71 71 73 74 73 72 68 66 65 62 59 57 53 46 48 63 64 59 53 51 64 73 74 74 73 61 63 72 73 74 48 49 49 50 51 54 56 56 57 60 57 57 63 65 63 63 62 62 62 62 61 61 61 61 61 61 61 59 62 62 61 62 62 62 63 63 63 62 62 62 62 62 62 62 62 63 63 61 63 63 63 63 62
70 70 71 71 73 73 72 70 68 67 66 65 65 64 62 57 45 44 49 49 45 43 46 54 61 64 70 63 52 46 47 45 44 44 44 44 44 45 46 47 48 49 52 61 63 63 63 62 61 61 61 61 61 61 60 60 60 60 60 61 61 61 61 61 61 62 62 62 62 62 62 62 62 62 62 62 62 62 62 63 63 63 63 62 62
69 69 70 72 73 72 71 69 67 66 66 66 66 65 65 63 60 49 43 45 44 43 43 43 48 54 55 56 55 54 46 43 43 43 44 44 44 43 44 45 46 49 51 55 62 61 61 61 60 60 60 60 60 60 60 60 60 61 61 61 61 61 61 61 61 62 62 62 61 61 61 61 61 61 61 61 61 61 61 61 61 61 62 62 62
68 68 70 71 73 72 70 69 68 67 67 66 66 66 65 65 62 58 55 46 44 44 43 43 44 45 46 46 48 49 46 43 43 43 43 44 44 44 44 44 46 49 53 60 61 60 60 60 60 60 60 60 60 60 60 61 61 61 61 61 61 61 61 61 62 62 61 60 60 60 60 60 59 59 59 59 59 59 59 59 59 60 61 61 61
70 69 69 71 72 72 70 69 68 67 67 67 66 66 66 64 62 62 61 60 59 53 48 45 43 43 43 43 44 44 44 44 44 44 45 46 47 49 50 52 47 48 54 61 61 60 60 60 60 60 60 61 61 61 61 61 61 61 61 61 61 61 61 61 61 60 59 59 59 59 59 58 59 58 58 58 58 59 58 59 59 59 59 59 59
68 70 71 71 70 70 70 69 68 67 67 67 66 65 64 64 64 63 63 62 61 59 58 56 48 45 48 46 43 43 44 44 45 45 46 46 48 49 53 62 61 61 61 61 61 61 60 60 60 61 61 61 61 61 61 61 61 61 61 61 61 60 60 60 59 59 59 59 58 58 58 58 58 58 58 58 58 58 58 58 58 58 58 58 58
66 66 67 68 68 68 68 67 67 66 65 65 65 65 65 64 63 62 61 61 60 59 58 57 54 48 44 41 41 42 43 44 44 43 43 44 47 53 61 61 61 61 60 61 61 61 61 61 61 61 62 62 62 62 62 61 61 61 61 61 60 60 59 59 59 59 58 58 58 58 57 58 58 58 58 58 58 57 58 58 58 57 57 57 58
65 66 66 67 67 67 67 66 66 65 64 64 64 65 65 64 63 62 62 61 61 60 60 60 60 59 57 55 48 43 42 44 45 45 47 48 51 59 61 61 61 61 61 61 61 61 61 61 62 62 62 62 62 62 61 61 61 61 59 60 60 59 59 59 58 58 58 58 59 59 58 58 58 58 57 57 57 57 57 57 57 57 57 56 56
63 65 66 67 67 67 66 65 64 63 64 65 65 65 64 64 64 64 62 62 61 61 61 61 60 61 60 60 60 57 53 49 50 52 52 52 57 60 61 61 61 60 60 60 60 61 61 62 62 62 62 62 62 62 61 61 61 61 60 60 59 59 56 58 58 58 58 59 59 59 58 58 59 58 57 57 56 56 57 57 57 57 57 57 56
62 60 60 62 64 66 66 65 64 64 64 64 64 64 63 63 62 61 60 59 59 58 58 58 58 59 59 59 60 60 61 61 61 60 60 60 61 61 61 61 60 60 60 60 60 60 60 61 61 62 63 62 62 62 61 61 61 60 59 59 58 58 59 59 58 58 58 59 59 59 58 59 58 58 58 58 57 57 57 57 57 56 56 56 56
62 62 61 60 63 63 64 64 64 64 64 63 63 63 63 62 61 61 60 58 58 57 56 55 55 55 57 60 61 61 61 60 60 60 60 60 60 60 60 59 59 58 59 59 59 59 59 60 60 61 61 61 61 61 61 61 60 59 59 58 58 58 59 58 58 58 58 58 58 59 59 59 59 59 60 59 58 57 57 57 57 57 56 56 56
61 62 62 60 60 62 63 62 62 63 63 62 62 62 61 61 60 60 59 58 57 57 56 55 54 54 53 52 52 54 59 58 58 58 58 58 57 56 55 55 55 54 54 54 55 55 55 55 56 56 57 57 57 58 59 59 59 59 58 58 58 58 59 59 59 59 59 58 58 58 59 60 59 59 58 59 55 57 59 58 57 57 57 56 56
60 59 60 60 60 61 61 61 61 61 61 61 60 60 60 59 59 58 58 57 57 56 55 55 54 54 50 47 47 49 55 56 55 55 55 55 54 53 53 52 52 52 51 51 51 52 53 53 53 53 53 53 53 54 55 55 55 56 57 57 57 57 58 58 58 59 59 59 59 59 59 59 59 59 59 54 59 59 59 59 58 58 57 57 57
60 59 59 59 59 59 58 58 58 58 58 58 58 59 58 58 58 57 57 56 56 55 54 53 53 53 52 48 49 49 52 53 54 53 53 52 51 50 49 49 49 49 49 48 48 49 49 49 50 50 50 51 51 52 52 51 51 52 52 53 54 55 55 55 56 57 58 58 58 59 59 59 59 60 60 59 59 59 59 59 58 58 58 58 57
58 58 58 58 58 58 57 57 57 57 56 57 56 56 55 55 54 54 54 53 53 52 52 52 51 51 51 50 49 50 51 51 51 50 50 49 48 47 46 45 46 45 46 46 46 46 46 46 47 48 48 48 49 49 50 50 49 49 49 49 50 50 50 51 51 51 52 54 57 58 59 60 59 60 60 60 60 60 60 59 59 58 58 58 58
57 56 56 56 56 56 55 56 55 55 55 54 53 53 54 53 53 52 52 51 52 51 50 50 50 50 50 49 49 49 49 49 50 49 48 46 45 45 44 43 43 43 43 44 44 45 45 44 45 45 45 46 46 47 47 47 48 47 47 47 47 47 47 47 47 47 48 50 54 58 59 59 60 60 61 61 61 60 60 59 59 56 58 58 58
55 55 55 54 54 54 53 53 53 52 52 51 51 51 50 51 51 51 50 50 50 49 49 49 49 49 49 48 48 48 47 47 47 48 48 46 45 44 43 42 42 42 42 42 42 43 43 43 43 43 43 43 44 45 45 45 45 46 45 45 45 45 45 44 45 45 47 49 51 55 58 59 59 60 59 61 61 61 60 60 59 59 59 58 58
54 54 54 53 53 53 52 52 50 50 49 49 49 49 50 50 50 50 50 49 49 48 48 47 47 47 47 47 47 47 46 46 46 46 46 46 45 44 43 42 42 41 40 40 41 40 41 41 42 42 42 41 42 43 43 44 44 43 43 43 43 42 42 42 42 44 46 48 50 52 55 57 58 58 58 58 58 58 58 58 58 58 57 57 56
53 53 53 53 52 51 50 49 49 49 48 47 47 47 47 47 46 47 47 47 47 47 47 47 46 46 46 46 46 45 45 45 45 45 44 44 44 44 43 42 41 40 39 39 39 39 40 40 40 40 40 40 40 40 41 41 41 41 41 41 40 39 39 39 41 43 45 46 47 49 51 54 57 57 57 57 57 57 56 56 56 55 55 55 53
52 51 51 50 49 48 47 46 47 45 46 47 47 47 47 45 45 45 45 45 44 45 44 44 44 44 44 44 44 44 44 44 43 43 43 44 44 43 42 41 41 39 39 38 38 38 38 38 39 39 39 39 38 38 39 40 39 39 39 38 37 38 36 37 39 42 42 44 46 48 51 54 56 57 57 57 57 57 56 56 56 55 54 54 54
50 50 48 47 47 45 45 45 44 44 45 45 44 44 45 44 43 43 42 42 42 41 41 41 41 41 41 42 42 41 41 41 40 40 40 40 41 42 41 40 39 38 37 37 35 35 35 36 36 36 37 36 36 37 37 37 38 38 36 35 35 35 35 37 39 40 42 45 46 49 52 53 55 56 57 57 57 57 56 56 56 55 54 55 54
47 46 45 45 44 44 44 43 43 43 43 42 42 41 41 40 40 39 39 38 37 37 38 38 38 38 39 39 40 39 38 37 37 37 37 37 38 38 38 37 37 36 35 35 35 34 34 35 35 35 35 35 35 35 35 36 37 36 35 34 34 34 35 36 39 37 38 41 49 53 55 56 56 56 57 57 57 57 56 56 56 55 55 54 54